This is the latest recevied weather packets stored in our database for station/object JA3YAI-13. If no packets are shown the sender has not sent any weather packets the latest 10 day(s).
| Time | Temp. | Humidity | Pressure | Rain* | Wind** | Luminosity | Snow |
|---|---|---|---|---|---|---|---|
| 1777768585 | 20.56° C | 84% | 1002.3 hPa | 0 mm | - | - | - |
| 1777767985 | 20.56° C | 84% | 1002.4 hPa | 0 mm | - | - | - |
| 1777767384 | 20.56° C | 84% | 1002.2 hPa | 0 mm | - | - | - |
| 1777766784 | 20.56° C | 85% | 1002.2 hPa | 0 mm | - | - | - |
| 1777766184 | 20.56° C | 84% | 1002.3 hPa | 0 mm | - | - | - |
| 1777765585 | 20° C | 85% | 1002.4 hPa | 0 mm | - | - | - |
| 1777764985 | 20° C | 85% | 1002.1 hPa | 0 mm | - | - | - |
| 1777764385 | 20° C | 84% | 1002.1 hPa | 0 mm | - | - | - |
| 1777763784 | 19.44° C | 84% | 1002 hPa | 0 mm | - | - | - |
| 1777763184 | 18.89° C | 84% | 1002.1 hPa | 0 mm | - | - | - |
| 1777762585 | 18.89° C | 84% | 1002.1 hPa | 0 mm | - | - | - |
| 1777761985 | 17.78° C | 83% | 1002.1 hPa | 0 mm | - | - | - |
| 1777761384 | 17.78° C | 83% | 1002.1 hPa | 0 mm | - | - | - |
| 1777760784 | 17.78° C | 83% | 1002.1 hPa | 0 mm | - | - | - |
| 1777760185 | 17.22° C | 83% | 1002.5 hPa | 0 mm | - | - | - |
| 1777759585 | 17.78° C | 83% | 1002 hPa | 0 mm | - | - | - |
| 1777758984 | 17.78° C | 83% | 1002.7 hPa | 0 mm | - | - | - |
| 1777758384 | 17.22° C | 82% | 1002.5 hPa | 0 mm | - | - | - |
| 1777757784 | 17.22° C | 83% | 1002.6 hPa | 0 mm | - | - | - |
| 1777757184 | 16.67° C | 83% | 1002.8 hPa | 0 mm | - | - | - |
| 1777756585 | 16.67° C | 84% | 1003 hPa | 0 mm | - | - | - |
| 1777755985 | 16.67° C | 84% | 1002.7 hPa | 0 mm | - | - | - |
| 1777755384 | 16.67° C | 85% | 1002.6 hPa | 0 mm | - | - | - |
| 1777754784 | 16.67° C | 85% | 1002.9 hPa | 0 mm | - | - | - |
| 1777754183 | 16.11° C | 87% | 1003.2 hPa | 0 mm | - | - | - |
* Rain latest hour (hover to see other rain measurements)
** Current wind speed in m/s (hover to see current wind gust speed)